Weather History for Westminster, MD

Change the Weather History Date:

Friday, September 13, 2013

  Actual Average (KTHV) Record (KTHV)
Temperature  
Mean Temperature 68 °F -  
Max Temperature 75 °F 0 °F 91 °F (2005)
Min Temperature 59 °F - 42 °F (2002)
Cooling Degree Days 2    
Growing Degree Days 18 (Base 50)    
Moisture  
Dew Point 56 °F    
Average Humidity 69    
Maximum Humidity 94    
Minimum Humidity 31    
Precipitation  
Precipitation 0.00 in - - ()
Sea Level Pressure  
Sea Level Pressure 29.82 in    
Wind  
Wind Speed 6 mph (NW)    
Max Wind Speed 15 mph    
Max Gust Speed 23 mph    
Visibility 10 miles    
Events Rain    
Averages and records for this station are not official NWS values.
T = Trace of Precipitation, MM = Missing Value Source: NWS Daily Summary

Daily Weather History Graph

Daily Weather History Graph

Search for Another Location

Airport:

Trip Planner

Search our weather history database for the weather conditions in past years. The results will help you decide how hot, cold, wet, or windy it might be!

Date:

Astronomy

Sep. 13, 2013 Rise Set
Actual Time 6:47 AM EDT 7:19 PM EDT
Civil Twilight 6:20 AM EDT 7:46 PM EDT
Nautical Twilight 5:48 AM EDT 8:18 PM EDT
Astronomical Twilight 5:15 AM EDT 8:51 PM EDT
Moon 3:06 PM EDT (9/13) 12:15 AM EDT (9/13)
Length of Visible Light 13h 26m
Length of Day
12h 31m
First Quarter, 61% of the Moon is Illuminated
Sep 13
First Quarter
Sep 19
Full
Sep 26
Last Quarter
Oct 4
New
Oct 11
First Quarter

Hourly Weather History & Observations

Time (EDT) Temp. Dew Point Humidity Pressure Visibility Wind Dir Wind Speed Gust Speed Precip Events Conditions
12:05 AM 71.6 °F 66.2 °F 83% 29.78 in 10.0 mi NW 3.5 mph - N/A   Overcast
12:25 AM 71.6 °F 66.2 °F 83% 29.77 in 10.0 mi WNW 4.6 mph - N/A   Mostly Cloudy
12:45 AM 71.6 °F 66.2 °F 83% 29.77 in 10.0 mi West 4.6 mph - N/A   Mostly Cloudy
1:05 AM 71.6 °F 66.2 °F 83% 29.77 in 10.0 mi West 4.6 mph - N/A   Scattered Clouds
1:25 AM 69.8 °F 66.2 °F 88% 29.76 in 10.0 mi Calm Calm - N/A   Scattered Clouds
1:45 AM 69.8 °F 66.2 °F 88% 29.76 in 10.0 mi WSW 4.6 mph - N/A   Scattered Clouds
2:05 AM 69.8 °F 64.4 °F 83% 29.76 in 10.0 mi WSW 4.6 mph - N/A   Clear
2:25 AM 68.0 °F 64.4 °F 88% 29.76 in 10.0 mi West 3.5 mph - N/A   Scattered Clouds
2:45 AM 69.8 °F 64.4 °F 83% 29.75 in 10.0 mi Calm Calm - N/A   Scattered Clouds
3:05 AM 68.0 °F 64.4 °F 88% 29.74 in 10.0 mi Calm Calm - N/A   Scattered Clouds
3:25 AM 68.0 °F 64.4 °F 88% 29.75 in 10.0 mi WNW 5.8 mph - N/A   Scattered Clouds
3:40 AM 69.8 °F 64.4 °F 83% 29.74 in 10.0 mi WNW 4.6 mph - N/A   Mostly Cloudy
4:05 AM 69.8 °F 64.4 °F 83% 29.75 in 10.0 mi NW 4.6 mph - N/A   Overcast
4:25 AM 68.0 °F 64.4 °F 88% 29.76 in 10.0 mi NNW 5.8 mph - N/A   Mostly Cloudy
4:45 AM 66.2 °F 64.4 °F 94% 29.76 in 10.0 mi NW 4.6 mph - N/A   Scattered Clouds
5:05 AM 66.2 °F 62.6 °F 88% 29.76 in 10.0 mi Calm Calm - N/A   Scattered Clouds
5:25 AM 66.2 °F 62.6 °F 88% 29.76 in 10.0 mi Calm Calm - N/A   Scattered Clouds
5:45 AM 66.2 °F 62.6 °F 88% 29.77 in 10.0 mi NW 4.6 mph - N/A   Mostly Cloudy
6:05 AM 66.2 °F 62.6 °F 88% 29.76 in 10.0 mi NNW 4.6 mph - N/A   Overcast
6:25 AM 64.4 °F 60.8 °F 88% 29.75 in 10.0 mi Calm Calm - N/A   Scattered Clouds
6:45 AM 64.4 °F 60.8 °F 88% 29.77 in 10.0 mi NW 5.8 mph - N/A   Clear
7:00 AM 64.4 °F 60.8 °F 88% 29.77 in 10.0 mi NW 3.5 mph - N/A   Scattered Clouds
7:25 AM 64.4 °F 60.8 °F 88% 29.77 in 10.0 mi Calm Calm - N/A   Clear
7:45 AM 64.4 °F 60.8 °F 88% 29.78 in 10.0 mi West 3.5 mph - N/A   Scattered Clouds
8:05 AM 64.4 °F 60.8 °F 88% 29.79 in 10.0 mi WNW 5.8 mph - N/A   Mostly Cloudy
8:25 AM 64.4 °F 60.8 °F 88% 29.80 in 10.0 mi WNW 5.8 mph - N/A Rain Light Rain
8:45 AM 64.4 °F 60.8 °F 88% 29.81 in 10.0 mi WNW 8.1 mph - N/A   Clear
9:05 AM 64.4 °F 57.2 °F 77% 29.81 in 10.0 mi NW 10.4 mph - N/A Rain Light Rain
9:25 AM 66.2 °F 57.2 °F 73% 29.81 in 10.0 mi NW 6.9 mph - N/A   Clear
9:45 AM 66.2 °F 57.2 °F 73% 29.81 in 10.0 mi NNW 4.6 mph - N/A   Clear
10:05 AM 66.2 °F 55.4 °F 68% 29.82 in 10.0 mi NW 11.5 mph 17.3 mph N/A   Clear
10:25 AM 69.8 °F 57.2 °F 64% 29.82 in 10.0 mi NW 13.8 mph 18.4 mph N/A   Clear
10:45 AM 69.8 °F 59.0 °F 68% 29.82 in 10.0 mi NW 11.5 mph 19.6 mph N/A   Scattered Clouds
11:05 AM 69.8 °F 57.2 °F 64% 29.83 in 10.0 mi WNW 10.4 mph - N/A   Scattered Clouds
11:25 AM 69.8 °F 55.4 °F 60% 29.82 in 10.0 mi NNW 9.2 mph - N/A   Mostly Cloudy
11:50 AM 69.8 °F 53.6 °F 56% 29.82 in 10.0 mi NNW 12.7 mph 17.3 mph N/A   Scattered Clouds
12:10 PM 71.6 °F 51.8 °F 50% 29.82 in 10.0 mi NW 9.2 mph 17.3 mph N/A   Scattered Clouds
12:30 PM 73.4 °F 51.8 °F 47% 29.82 in 10.0 mi NW 9.2 mph 21.9 mph N/A   Scattered Clouds
12:50 PM 71.6 °F 51.8 °F 50% 29.81 in 10.0 mi NNW 9.2 mph 18.4 mph N/A   Scattered Clouds
1:10 PM 73.4 °F 51.8 °F 47% 29.81 in 10.0 mi NW 13.8 mph 19.6 mph N/A   Scattered Clouds
1:30 PM 75.2 °F 51.8 °F 44% 29.80 in 10.0 mi NNW 8.1 mph 19.6 mph N/A   Scattered Clouds
1:50 PM 73.4 °F 48.2 °F 41% 29.80 in 10.0 mi NNW 8.1 mph - N/A   Scattered Clouds
2:10 PM 73.4 °F 50.0 °F 44% 29.80 in 10.0 mi NNW 10.4 mph - N/A   Mostly Cloudy
2:30 PM 73.4 °F 48.2 °F 41% 29.80 in 10.0 mi NW 8.1 mph - N/A   Mostly Cloudy
2:50 PM 73.4 °F 48.2 °F 41% 29.80 in 10.0 mi NW 11.5 mph - N/A   Mostly Cloudy
3:10 PM 73.4 °F 44.6 °F 36% 29.80 in 10.0 mi WNW 12.7 mph 18.4 mph N/A   Scattered Clouds
3:30 PM 75.2 °F 46.4 °F 36% 29.80 in 10.0 mi NW 11.5 mph 21.9 mph N/A   Scattered Clouds
3:50 PM 73.4 °F 46.4 °F 38% 29.80 in 10.0 mi NNW 8.1 mph - N/A   Clear
4:10 PM 73.4 °F 46.4 °F 38% 29.80 in 10.0 mi North 8.1 mph - N/A   Clear
4:30 PM 75.2 °F 42.8 °F 31% 29.80 in 10.0 mi NW 8.1 mph - N/A   Clear
4:50 PM 73.4 °F 46.4 °F 38% 29.81 in 10.0 mi WNW 15.0 mph 23.0 mph N/A   Scattered Clouds
5:10 PM 69.8 °F 51.8 °F 53% 29.82 in 10.0 mi NW 13.8 mph 21.9 mph N/A   Scattered Clouds
5:30 PM 69.8 °F 53.6 °F 56% 29.83 in 10.0 mi NW 11.5 mph 18.4 mph N/A   Scattered Clouds
5:50 PM 68.0 °F 51.8 °F 56% 29.83 in 10.0 mi NW 9.2 mph 19.6 mph N/A   Mostly Cloudy
6:10 PM 66.2 °F 53.6 °F 64% 29.84 in 10.0 mi NW 8.1 mph - N/A   Overcast
6:30 PM 68.0 °F 53.6 °F 60% 29.85 in 10.0 mi WNW 8.1 mph - N/A   Overcast
6:50 PM 66.2 °F 51.8 °F 60% 29.86 in 10.0 mi NW 5.8 mph - N/A   Mostly Cloudy
7:10 PM 64.4 °F 51.8 °F 64% 29.86 in 10.0 mi NW 8.1 mph - N/A   Mostly Cloudy
7:30 PM 64.4 °F 51.8 °F 64% 29.87 in 10.0 mi NW 4.6 mph - N/A   Mostly Cloudy
7:50 PM 64.4 °F 53.6 °F 68% 29.88 in 10.0 mi WNW 6.9 mph - N/A   Overcast
8:10 PM 64.4 °F 51.8 °F 64% 29.89 in 10.0 mi NW 8.1 mph - N/A   Mostly Cloudy
8:30 PM 62.6 °F 51.8 °F 68% 29.90 in 10.0 mi NW 5.8 mph - N/A   Scattered Clouds
8:50 PM 62.6 °F 53.6 °F 72% 29.91 in 10.0 mi NW 8.1 mph - N/A   Mostly Cloudy
9:10 PM 62.6 °F 53.6 °F 72% 29.91 in 10.0 mi WNW 8.1 mph - N/A   Mostly Cloudy
9:30 PM 62.6 °F 53.6 °F 72% 29.93 in 10.0 mi WNW 6.9 mph - N/A   Scattered Clouds
9:50 PM 62.6 °F 53.6 °F 72% 29.93 in 10.0 mi WNW 8.1 mph - N/A   Overcast
10:10 PM 60.8 °F 53.6 °F 77% 29.93 in 10.0 mi NNW 6.9 mph - N/A   Mostly Cloudy
10:30 PM 60.8 °F 53.6 °F 77% 29.95 in 10.0 mi NW 6.9 mph - N/A   Scattered Clouds
10:50 PM 60.8 °F 53.6 °F 77% 29.95 in 10.0 mi NW 6.9 mph - N/A   Mostly Cloudy
11:10 PM 60.8 °F 51.8 °F 72% 29.95 in 10.0 mi NW 6.9 mph - N/A   Mostly Cloudy
11:30 PM 60.8 °F 48.2 °F 63% 29.96 in 10.0 mi NW 5.8 mph - N/A   Mostly Cloudy
11:50 PM 59.0 °F 48.2 °F 67% 29.96 in 10.0 mi NW 6.9 mph - N/A   Scattered Clouds